Regional Weather Roundup
Issued by NWS Grand Forks, ND

Home | Current Version | Previous Version | Graphics & Text | Print | Product List | Glossary On
Versions: 1 2 3 4 5 6 7 8 9 10 11 12 13 14 15 16 17 18 19 20 21 22 23 24 25 26 27 28 29 30 31 32 33 34 35 36 37 38 39 40 41 42 43 44 45 46 47 48 49 50
000
ASUS43 KFGF 040410
RWRFGF
PRAIRIE TO PINES  WEATHER ROUNDUP
NATIONAL WEATHER SERVICE EASTERN NORTH DAKOTA/GRAND FORKS ND
1000 PM CST SAT DEC 03 2016

 **SATELLITE DATA USED TO AUGMENT SKY COVER AT AUTOMATED STATIONS**
 *****  WEATHER ACROSS EASTERN NORTH DAKOTA  *****

CITY           SKY/WX    TMP DP  RH WIND       PRES   REMARKS
GRAND FORKS    CLOUDY    32  29  88 SE18      29.91F WCI  20
GRAND FRKS AFB CLOUDY    31  30  95 S14       29.90F WCI  21
GRAND FRKS NWS   N/A     32 N/A N/A S12         N/A  WCI  23
DEVILS LAKE    CLOUDY    32  30  92 SE14      29.81F WCI  22
FARGO          CLOUDY    34  31  88 S17       29.94F WCI  23
WAHPETON ARPT  CLOUDY    32  32 100 SE14      29.97F WCI  22
$$

 ***** WEATHER ACROSS CENTRAL AND WESTERN NORTH DAKOTA  *****

CITY           SKY/WX    TMP DP  RH WIND       PRES   REMARKS
BISMARCK       CLOUDY    26  24  92 SE5       29.80F WCI  20
MINOT          LGT SNOW  30  28  92 S6        29.71F FOG     WCI  24
JAMESTOWN      CLOUDY    33  31  92 S10       29.83F WCI  25
MINOT AFB      CLOUDY    28  27  93 SW12      29.70F FOG     WCI  18
GARRISON         N/A     30  28  92 SW10      29.73F WCI  21
WILLISTON      FLURRIES  34  32  92 W10       29.74S
DICKINSON      PTCLDY    31  29  92 W13       29.75S WCI  21
HETTINGER      CLOUDY    34  30  85 W12       29.81F
$$

 *****  OTHER AIRPORT OBSERVATIONS IN OUR AREA  *****

CITY           SKY/WX    TMP DP  RH WIND       PRES   REMARKS
WALHALLA         N/A     28  28 100 SE14G20   29.88F WCI  17
GRAFTON AIRPOR CLOUDY    28  30 100 SE13G22   29.92F WCI  18
VALLEY CITY AR FLURRIES  32  32 100 S17G24    29.89S WCI  21
CANDO          CLOUDY    32  32 100 S14       29.81F WCI  22
CAVALIER APRT  MIX PCPN  28  28 100 S10G16    29.89F WCI  19
GWINNER        CLOUDY    34  34 100 S10       29.91S
SHEYENNE NWR     N/A     33  31  91 S12       29.95S WCI  24
ROLLA          CLOUDY    30  30 100 S15       29.76F WCI  19
 ***** THE ABOVE OBSERVATIONS ARE NON NWS ARE NOT QUALITY
       CONTROLLED AND MAY MIS-REPORT RAIN FOR SNOW...
$$

  *****  WEATHER ACROSS NORTHERN MINNESOTA  *****

CITY           SKY/WX    TMP DP  RH WIND       PRES   REMARKS
FLAG ISLAND    CLOUDY    27  21  80 S22       30.01F WCI  12
WARROAD        PTCLDY    23  19  86 SE8       29.99F WCI  14
ROSEAU         CLOUDY    27  21  80 SE10      29.98F WCI  17
HALLOCK        LGT SNOW  28  27  93 SE13      29.92F WCI  18
THF RVR FALLS  FLURRIES  28  24  85 SE12      29.96F WCI  18
BAUDETTE       CLEAR     22  18  85 SE9       30.02F WCI  12
WASKISH        PTCLDY    23  21  93 SE3       30.02F
CROOKSTON      CLOUDY    30  28  93 S15G21    29.95F WCI  19
GREENBUSH NDAW   N/A     27  25  93 SE10        N/A  WCI  17
$$
  *****  WEATHER ACROSS CENTRAL AND WEST MINNESOTA  *****

CITY           SKY/WX    TMP DP  RH WIND       PRES   REMARKS
FOSSTON        CLOUDY    27  23  86 SE12      29.96F WCI  16
BEMIDJI        CLOUDY    26  23  89 SE12      30.00F WCI  15
PARK RAPIDS    CLOUDY    28  23  81 SE14      30.01S WCI  17
ELBOW LAKE     CLOUDY    32  32  99 S20       29.99F WCI  20
WADENA         MIX PCPN  28  27  93 SE10      30.01F WCI  19
DETROIT LAKES  CLOUDY    32  30  93 SE13      29.98S WCI  22
MOORHEAD       CLOUDY    34  30  86 SE20      29.96F WCI  22
FERGUS FALLS   FLURRIES  34  34 100 S16       30.02F WCI  23
MORRIS MN      MIX PCPN  34  32  93 S15       30.00S WCI  24
STAPLES        CLOUDY    27  25  93 SE9       30.04F WCI  17
$$
  *****  WEATHER ELSEWHERE ACROSS MINNESOTA  *****

CITY           SKY/WX    TMP DP  RH WIND       PRES   REMARKS
DULUTH         CLOUDY    27  20  75 S6        30.11F WCI  20
INTRNTL FALLS  CLEAR     20  16  84 SE7       30.06F WCI  11
ELY            CLOUDY    27  21  80 SE3       30.11F
CLOQUET        CLOUDY    28  19  69 SE3       30.11F
WHEATON        CLOUDY   N/A N/A N/A S10       29.99F HAZE
BRAINERD       CLOUDY    28  23  81 SE7       30.07F WCI  21
HIBBING        CLOUDY    26  19  74 SE7       30.09F WCI  18
ALEXANDRIA     LGT SNOW  31  30  96 SE13      30.02F FOG     WCI  21
SAINT CLOUD    CLOUDY    30  25  81 SE10      30.09F WCI  21
MINNEAPOLIS    CLOUDY    32  24  72 S12       30.14F WCI  23
$$

  *****  WEATHER ACROSS SOUTH DAKOTA  *****

CITY           SKY/WX    TMP DP  RH WIND       PRES   REMARKS
SIOUX FALLS    CLOUDY    34  33  96 S16       30.02F FOG     WCI  24
BROOKINGS      CLOUDY    33  31  92 S18       29.98S WCI  22
WATERTOWN      CLOUDY    33  32  96 S21G31    29.94F WCI  21
HURON          CLOUDY    34  32  92 S13       29.92F WCI  25
SISSETON         N/A     35  32  88 S15       29.94F
ABERDEEN       CLOUDY    34  31  88 S16       29.90F WCI  24
MITCHELL       MOCLDY    36  33  89 S15G22    29.95F
PIERRE         CLEAR     28  21  75 SW7       29.88F WCI  21
MOBRIDGE       CLOUDY    30  22  72 SE7       29.83S WCI  23
RAPID CITY     CLOUDY    32  22  66 W12       29.91S WCI  23
$$

  *****  SOME WEATHER IN NEARBY STATES *****

CITY           SKY/WX    TMP DP  RH WIND       PRES   REMARKS
GLASGOW MT     CLEAR     28  25  88 W12       29.82R WCI  18
GREAT FALLS MT PTCLDY    31  20  63 SW14      29.89F WCI  21
CHEYENNE WY    CLOUDY    27   9  46 W15       30.01S WCI  15
SCOTTSBLUFF NE MOCLDY    26  13  57 NW7       30.01R WCI  18
OMAHA NE       LGT SNOW  33  29  85 CALM      30.09F VSB 1
DES MOINES IA  LGT RAIN  37  34  89 E10       30.14F
DAVENPORT IA   CLOUDY    34  26  72 S8        30.24F
CHICAGO IL     CLOUDY    31  26  82 S5        30.28F
EAU CLAIRE WI  CLOUDY    30  22  72 SE5       30.18F
LA CROSSE WI   CLOUDY    34  26  72 SE6       30.20F
$$

  *****  SOME NATIONAL WEATHER *****

CITY           SKY/WX    TMP DP  RH WIND       PRES   REMARKS
LA GUARDIA NY  MOCLDY    45  28  51 NW21G29   30.14R
RALEIGH NC     CLOUDY    45  31  58 CALM      30.29S
ATLANTA GA     LGT RAIN  48  42  80 E8        30.19R
NEW ORLEANS LA CLOUDY    63  59  87 E17       29.95S
OKLAHOMA CITY  CLOUDY    44  43  96 E7        30.03F FOG
ALBUQUERQUE NM CLEAR     38  25  59 N13       30.07R
SALT LAKE CITY MOCLDY    33  21  61 SE9       30.27R
LOS ANGELES CA CLEAR     59  47  64 S5        30.05S
BOISE ID       CLOUDY    36  28  73 SE6       30.21F
SEATTLE WA     LGT RAIN  45  44  97 SW14G20   30.13F
$$

*** WEATHER ACROSS MANITOBA...SASKATCHEWAN AND ONTARIO ***
                ***ONTARIO***

CITY           SKY/WX    TMP DP  RH WIND       PRES   REMARKS
GERALDTON      CLOUDY    21  19  93 SE2       30.21R
THUNDER BAY    LGT SNOW  30  27  86 NE9       30.19F WCI  22
SIOUX LOOKOUT  FLURRIES  25  21  86 S8        30.09F WCI  16
TORONTO        MOCLDY    37  30  75 W6        30.23R
BIG TROUT LK   CLOUDY    19  19 100 SW9       30.12S WCI   9
PICKLE LAKE    NOT AVBL
DRYDEN         CLOUDY    25  21  86 S10       30.06F WCI  15
KENORA         FLURRIES  25  19  80 S13       30.02F WCI  13
$$
                *** MANITOBA***

CITY           SKY/WX    TMP DP  RH WIND       PRES   REMARKS
BRANDON        CLOUDY    30  27  86 S14       29.76F WCI  20
DAUPHIN        CLOUDY    32  27  80 S8        29.75F WCI  25
ISLAND LAKE    NOT AVBL
PILOT MOUND      N/A     28  28 100 S20         N/A  WCI  15
THE PAS        FLURRIES  30  27  86 SE7       29.72F WCI  23
THOMPSON       FLURRIES  16  12  86 E3        29.89S
WINNIPEG       FLURRIES  27  23  86 SE22      29.90F WCI  12
LYNN LAKE      FLURRIES  21  21 100 SE12      29.75F WCI   9
CHURCHILL      FLURRIES  16  16 100 S7        30.04S WCI   6
GILLAM         LGT SNOW   7   3  85 SE5       30.03F WCI  -2
$$
                ***SASKATCHEWAN***

CITY           SKY/WX    TMP DP  RH WIND       PRES   REMARKS
ESTEVAN        NOT AVBL
KINDERSLEY     PTCLDY    16  12  86 S5        29.73S WCI   9
LLOYDMINSTER   CLEAR     21  21 100 W12       29.67S WCI   9
PRINCE ALBERT  FLURRIES  28  25  86 W3        29.70S
REGINA         LGT SNOW  23  23 100 W13       29.73R FOG     WCI  11
YORKTON        CLOUDY    27  25  93 S8        29.66S WCI  18
N. BATTLEFORD  FOG       16 N/A N/A SE2       29.73S VSB 1/4
LA RONGE       CLOUDY    28  25  86 S7        29.66F WCI  21
SASKATOON      CLOUDY    27  23  86 W10       29.74S WCI  17
SWIFT CURRENT  CLOUDY    27  27 100 W9        29.73F WCI  17
$$
NOTE: THESE ARE AUTOMATED STATIONS WITH LIMITED QUALITY CONTROL
      "FAIR" INDICATES FEW OR NO CLOUDS BELOW 12,000 FEET WITH NO
      SIGNIFICANT WEATHER AND/OR OBSTRUCTIONS TO VISIBILITY.
      SKY/WX - SKY CONDITION AND SIGNIFICANT WEATHER.
      TMP - AIR TEMPERATURE.    DP   - DEWPOINT TEMPERATURE.
      RH  - RELATIVE HUMIDITY.  PRES - PRESSURE.
      HX  - HEAT INDEX.         WCI  - WIND CHILL INDEX.
$




USA.gov is the U.S. government's official web portal to all federal, state and local government web resources and services.